Regional Weather Roundup
Issued by NWS

Home | Current Version | Previous Version | Text Only | Print | Product List | Glossary Off
Versions: 1 2 3 4 5 6 7 8 9 10 11 12 13 14 15 16 17 18 19 20 21 22 23 24 25 26 27 28 29 30 31 32 33 34 35 36 37 38 39 40 41 42 43 44 45 46 47 48 49 50

000
ASUS43 KDTX 272310
RWRMI
MICHIGAN HOURLY REGIONAL WEATHER ROUNDUP
NATIONAL WEATHER SERVICE DETROIT/PONTIAC MI
700 PM EDT THU APR 27 2017

NOTE: "FAIR" INDICATES FEW OR NO CLOUDS BELOW 12,000 FEET WITH NO
SIGNIFICANT WEATHER AND/OR OBSTRUCTION TO VISIBILITY.

MIZ047>049-052>055-059>063-066>070-074>076-081>083-280000-
SOUTHEAST LOWER MICHIGAN

CITY           SKY/WX    TMP DP  RH WIND       PRES   REMARKS
ADRIAN         CLOUDY    53  43  68 W17G26    29.72R
ALMA           CLOUDY    48  39  71 W20G26    29.68R
ANN ARBOR      PTSUNNY   55  44  66 SW18G29   29.68R
BAD AXE        SUNNY     57  42  59 W21G31    29.60R
CARO           CLOUDY    55  43  63 W18G29    29.62R
DETROIT CITY   MOSUNNY   62  44  51 W23G31    29.64R
DETROIT        PTSUNNY   60  44  55 SW24G32   29.68R
FLINT          CLOUDY    56  44  64 W15G24    29.65R
GROSSE ILE     PTSUNNY   58  44  59 W14G28    29.67R
HILLSDALE      CLOUDY    50  39  66 SW18G25   29.72R
HOWELL         CLOUDY    54  40  61 SW14G25   29.68R

CITY           SKY/WX    TMP DP  RH WIND       PRES   REMARKS
JACKSON        CLOUDY    51  41  68 W21G30    29.70R
LAMBERTVILLE   CLOUDY    55  43  63 W13G29    29.72R
LANSING        CLOUDY    50  38  63 W21G28    29.70R
LAPEER         CLOUDY    59  44  58 W17G26    29.62R
MASON          CLOUDY    52  42  69 SW8G21    29.69R
MONROE         CLOUDY    57  44  61 W21G31    29.69R
MT. CLEMENS    MOSUNNY   64  46  51 W22G29    29.61R
PONTIAC        PTSUNNY   57  43  59 W20G31    29.64R
PORT HOPE        N/A     58  43  57 W15G33    29.56R
PORT HURON     SUNNY     66  43  42 W8G21     29.59R
TRI CITIES     CLOUDY    51  41  68 W21G32    29.65R
MIDLAND        CLOUDY    51  37  60 W15G25    29.64R
TROY           PTSUNNY   61  41  48 SW22G31   29.66R
SAGINAW HB     CLOUDY    54  37  54 W20G29    29.64R
$$
MIZ043>046-050>051-056>058-064>065-071>073-077>080-280000-
SOUTHWEST LOWER MICHIGAN

CITY           SKY/WX    TMP DP  RH WIND       PRES   REMARKS
BATTLE CREEK   CLOUDY    48  40  73 W12       29.73R
BENTON HARBOR  CLOUDY    47  38  71 SW15G25   29.73R
BIG RAPIDS     CLOUDY    43  34  70 W16G26    29.66R
COLDWATER      CLOUDY    49  39  69 W18G25    29.74R
FREMONT        LGT RAIN  41  40  96 SW10      29.68R
HOLLAND        CLOUDY    46  39  76 SW13G22   29.72R
GRAND RAPIDS   CLOUDY    47  39  74 SW17G28   29.70R
IONIA          CLOUDY    48  37  64 W21G28    29.69R
KALAMAZOO      CLOUDY    48  38  68 SW12      29.74R
LUDINGTON      CLOUDY    41  36  81 SW14G21   29.66R
MARSHALL       CLOUDY    49  39  67 SW18G24   29.72R
MOUNT PLEASANT CLOUDY    47  36  65 SW17G32   29.65R
MUSKEGON       CLOUDY    43  41  93 SW12      29.71R FOG
SOUTH HAVEN    CLOUDY    46  39  77 W14G21    29.73R
$$
MIZ016>042-280000-
NORTHERN LOWER MICHIGAN

CITY           SKY/WX    TMP DP  RH WIND       PRES   REMARKS
ALPENA         MOSUNNY   57  41  55 SW16G31   29.51R
BEAVER ISLAND  CLOUDY    39  37  91 SW18G29   29.54R WCI  30
BELLAIRE       CLOUDY    43  34  69 SW14G22   29.59R
CADILLAC       CLOUDY    41  33  72 SW23G31   29.61R
CHARLEVOIX     CLOUDY    42  35  74 SW23G29   29.59R
FRANKFORT      CLOUDY    39  35  83 SW10G18   29.63R WCI  33
GAYLORD        CLOUDY    47  35  63 SW20G35   29.55R
GRAYLING       CLOUDY    46  35  67 SW14G26   29.58R
HARBOR SPRINGS CLOUDY    42  36  76 SW20G36   29.54R
HOUGHTON LAKE  CLOUDY    46  36  68 SW23G35   29.60R
MANISTEE       CLOUDY    41  33  73 SW12G20   29.65R
OSCODA         PTSUNNY   56  40  54 SW23G35   29.55R
PELLSTON       CLOUDY    45  34  65 SW16G30   29.54R
ROGERS CITY    PTSUNNY   57  40  52 W14G22    29.50R
TRAVERSE CITY  CLOUDY    43  34  70 SW15G24   29.58R
$$
MIZ007>008-015-280000-
EASTERN UPPER MICHIGAN

CITY           SKY/WX    TMP DP  RH WIND       PRES   REMARKS
KINROSS        CLOUDY    43  36  76 SW16G33   29.51R
MACKINAC ISLAN CLOUDY    41  35  81 SW22G37   29.52R
NEWBERRY       CLOUDY    36  35  96 W8        29.49R FOG     WCI  29
S. S. MARIE    CLOUDY    47  37  68 SW15G29   29.49R
MUNISING         N/A     34  32  92 SW9       29.51R WCI  27
$$
MIZ004>006-011>014-085-280000-
CENTRAL UPPER MICHIGAN

CITY           SKY/WX    TMP DP  RH WIND       PRES   REMARKS
MANISTIQUE     DRIZZLE   38  37  97 SW8G16    29.51R WCI  32
ESCANABA       LGT SNOW  34  32  93 W9        29.56R FOG     WCI  26
MENOMINEE      CLOUDY    37  33  85 W8        29.58R WCI  31
SAWYER-GWINN   LGT SNOW  28  27  93 SW9       29.50R WCI  20
$$
MIZ001>003-009>011-084-280000-
WESTERN UPPER MICHIGAN

CITY           SKY/WX    TMP DP  RH WIND       PRES   REMARKS
IRON MOUNTAIN  CLOUDY    33  28  81 SW7       29.52R WCI  27
HOUGHTON       LGT SNOW  27  22  81 W25G32    29.46R WCI  12
IRONWOOD       FLURRIES  27  24  89 W15       29.55R WCI  15
$$

ABBREVIATIONS USED IN REMARKS
   TC - TEMPERATURE IN CELSIUS
  WCI - WIND CHILL INDEX
   HX - HEAT INDEX
  VSB - VISIBILITY





USA.gov is the U.S. government's official web portal to all federal, state and local government web resources and services.